AT&T T-16 (44333 NORAD) Tracking and Keplerian Element Data

This shows tracking and keplerian element data for the satellite.

Feedback or suggestion? Click here.




ElementValue
Catalog44333
NameAT&T T-16
Epoch Orbit126
Epoch Day292.59169462
Epoch Year2019
RAAN85.4554
Inclination0.0332
Eccentricity4.5E-05
Argument of Perigee107.6883
Mean Anonmoly306.8375
Mean Motion1.0027196
Decay Rate-1.15E-06
L11 44333U 19034A 19292.59169462 -.00000115 00000-0 00000+0 0 9996
L22 44333 0.0332 85.4554 0000450 107.6883 306.8375 1.00271960 1267

Live tracking and technical data element details for AT&T T-16 (NORAD 44333). AT&T T-16 can be tracked NOW for your location showing map with azimuth and elevation plus other details from your city location.

Track the satellite on the map from your city or location and see movement details for azimuth, elevation, latitude, longitude, range, height, and movement on the map or in text.







IsCatalogInMostPopularTable: catalog: 44333, numindb: 16
Update: records affected: 1



GetName: 44333 AT&T T-16

Hit Count: updated at: Tue, 22 Oct 2019 23:55:35 GMT